Time,TemperatureF,DewpointF,PressureIn,WindDirection,WindDirectionDegrees,WindSpeedMPH,WindSpeedGustMPH,Humidity,HourlyPrecipIn,Conditions,Clouds,dailyrainin,SoftwareType,DateUTC
2013-03-21 00:04:00,30.6,12.2,29.82,North,-999,0.0,0.0,46,0.00,,,-99.99,FreeWX-Wi 1.02,2013-03-21 04:04:00,
2013-03-21 00:09:00,30.7,12.9,29.82,North,-999,0.0,0.0,47,0.00,,,-99.99,FreeWX-Wi 1.02,2013-03-21 04:09:00,
2013-03-21 00:14:00,31.1,13.6,29.82,North,-999,0.0,0.0,48,0.00,,,-99.99,FreeWX-Wi 1.02,2013-03-21 04:14:00,
2013-03-21 00:19:00,31.5,14.0,29.82,North,-999,0.0,0.0,48,0.00,,,-99.99,FreeWX-Wi 1.02,2013-03-21 04:19:00,
2013-03-21 00:27:00,32.0,13.1,29.82,North,-999,0.0,0.0,45,0.00,,,-99.99,FreeWX-Wi 1.02,2013-03-21 04:27:00,
2013-03-21 00:32:00,32.2,14.2,29.82,North,-999,0.0,5.4,47,0.00,,,-99.99,FreeWX-Wi 1.02,2013-03-21 04:32:00,
2013-03-21 00:37:00,32.0,13.6,29.82,North,-999,0.0,2.7,46,0.00,,,-99.99,FreeWX-Wi 1.02,2013-03-21 04:37:00,
2013-03-21 00:42:00,32.0,13.1,29.82,North,-999,0.0,0.0,45,0.00,,,-99.99,FreeWX-Wi 1.02,2013-03-21 04:42:00,
2013-03-21 00:47:00,32.0,13.6,29.82,North,-999,0.0,0.0,46,0.00,,,-99.99,FreeWX-Wi 1.02,2013-03-21 04:47:00,
2013-03-21 00:52:00,32.0,13.1,29.82,North,-999,0.0,0.0,45,0.00,,,-99.99,FreeWX-Wi 1.02,2013-03-21 04:52:00,
2013-03-21 00:57:00,32.0,13.1,29.82,North,-999,0.0,0.0,45,0.00,,,-99.99,FreeWX-Wi 1.02,2013-03-21 04:57:00,
2013-03-21 01:02:00,32.2,9.5,29.82,North,-999,0.0,0.0,38,0.00,,,-99.99,FreeWX-Wi 1.02,2013-03-21 05:02:00,
2013-03-21 01:07:00,32.2,10.6,29.82,North,-999,0.0,0.0,40,0.00,,,-99.99,FreeWX-Wi 1.02,2013-03-21 05:07:00,
2013-03-21 01:12:00,32.2,9.5,29.82,North,-999,0.0,0.0,38,0.00,,,-99.99,FreeWX-Wi 1.02,2013-03-21 05:12:00,
2013-03-21 01:17:00,32.2,9.5,29.82,North,-999,0.0,0.0,38,0.00,,,-99.99,FreeWX-Wi 1.02,2013-03-21 05:17:00,
2013-03-21 01:22:00,32.5,7.9,29.82,North,-999,0.0,0.0,35,0.00,,,-99.99,FreeWX-Wi 1.02,2013-03-21 05:22:00,
2013-03-21 01:27:00,32.5,6.6,29.82,North,-999,0.0,0.0,33,0.00,,,-99.99,FreeWX-Wi 1.02,2013-03-21 05:27:00,
2013-03-21 01:32:00,32.7,6.8,29.82,North,-999,0.0,0.0,33,0.00,,,-99.99,FreeWX-Wi 1.02,2013-03-21 05:32:00,
2013-03-21 01:37:00,32.7,4.8,29.82,North,-999,0.0,0.0,30,0.00,,,-99.99,FreeWX-Wi 1.02,2013-03-21 05:37:00,
2013-03-21 01:43:00,32.9,4.8,29.82,North,-999,0.0,0.0,30,0.00,,,-99.99,FreeWX-Wi 1.02,2013-03-21 05:43:00,
2013-03-21 01:48:00,33.1,7.2,29.82,North,-999,0.0,0.0,33,0.00,,,-99.99,FreeWX-Wi 1.02,2013-03-21 05:48:00,
2013-03-21 01:53:00,33.1,8.4,29.82,North,-999,0.0,0.0,35,0.00,,,-99.99,FreeWX-Wi 1.02,2013-03-21 05:53:00,
2013-03-21 01:58:00,33.1,7.2,29.82,North,-999,0.0,0.0,33,0.00,,,-99.99,FreeWX-Wi 1.02,2013-03-21 05:58:00,
2013-03-21 02:03:00,33.1,7.2,29.82,North,-999,0.0,0.0,33,0.00,,,-99.99,FreeWX-Wi 1.02,2013-03-21 06:03:00,
2013-03-21 02:08:00,33.1,5.0,29.82,North,-999,0.0,0.0,30,0.00,,,-99.99,FreeWX-Wi 1.02,2013-03-21 06:08:00,
2013-03-21 02:13:00,32.9,4.8,29.82,North,-999,0.0,0.0,30,0.00,,,-99.99,FreeWX-Wi 1.02,2013-03-21 06:13:00,
2013-03-21 02:18:00,32.9,4.8,29.82,North,-999,0.0,0.0,30,0.00,,,-99.99,FreeWX-Wi 1.02,2013-03-21 06:18:00,
2013-03-21 02:23:00,32.7,4.8,29.82,North,-999,0.0,0.0,30,0.00,,,-99.99,FreeWX-Wi 1.02,2013-03-21 06:23:00,
2013-03-21 02:28:00,32.4,4.5,29.79,North,-999,0.0,0.0,30,0.00,,,-99.99,FreeWX-Wi 1.02,2013-03-21 06:28:00,
2013-03-21 02:33:00,32.2,4.3,29.79,North,-999,0.0,0.0,30,0.00,,,-99.99,FreeWX-Wi 1.02,2013-03-21 06:33:00,
2013-03-21 02:38:00,32.0,4.1,29.79,North,-999,0.0,0.0,30,0.00,,,-99.99,FreeWX-Wi 1.02,2013-03-21 06:38:00,
2013-03-21 02:43:00,32.2,4.3,29.79,North,-999,0.0,0.0,30,0.00,,,-99.99,FreeWX-Wi 1.02,2013-03-21 06:43:00,
2013-03-21 02:48:00,32.2,4.3,29.79,North,-999,0.0,0.0,30,0.00,,,-99.99,FreeWX-Wi 1.02,2013-03-21 06:48:00,
2013-03-21 02:53:00,32.5,4.6,29.79,North,-999,0.0,0.0,30,0.00,,,-99.99,FreeWX-Wi 1.02,2013-03-21 06:53:00,
2013-03-21 02:58:00,32.4,6.4,29.79,North,-999,0.0,0.0,33,0.00,,,-99.99,FreeWX-Wi 1.02,2013-03-21 06:58:00,
2013-03-21 03:03:00,32.0,6.3,29.79,North,-999,0.0,0.0,33,0.00,,,-99.99,FreeWX-Wi 1.02,2013-03-21 07:03:00,
2013-03-21 03:08:00,31.6,9.0,29.79,North,-999,0.0,0.0,38,0.00,,,-99.99,FreeWX-Wi 1.02,2013-03-21 07:08:00,
2013-03-21 03:13:00,31.5,8.8,29.79,North,-999,0.0,0.0,38,0.00,,,-99.99,FreeWX-Wi 1.02,2013-03-21 07:13:00,
2013-03-21 03:18:00,31.5,7.0,29.79,North,-999,0.0,0.0,35,0.00,,,-99.99,FreeWX-Wi 1.02,2013-03-21 07:18:00,
2013-03-21 03:23:00,30.7,8.2,29.79,North,-999,0.0,0.0,38,0.00,,,-99.99,FreeWX-Wi 1.02,2013-03-21 07:23:00,
2013-03-21 03:28:00,30.2,7.7,29.79,North,-999,0.0,0.0,38,0.00,,,-99.99,FreeWX-Wi 1.02,2013-03-21 07:28:00,
2013-03-21 03:33:00,30.2,7.7,29.79,North,-999,0.0,0.0,38,0.00,,,-99.99,FreeWX-Wi 1.02,2013-03-21 07:33:00,
2013-03-21 03:38:00,30.2,5.9,29.79,North,-999,0.0,0.0,35,0.00,,,-99.99,FreeWX-Wi 1.02,2013-03-21 07:38:00,
2013-03-21 03:43:00,30.6,6.3,29.79,North,-999,0.0,0.0,35,0.00,,,-99.99,FreeWX-Wi 1.02,2013-03-21 07:43:00,
2013-03-21 03:48:00,31.1,6.6,29.79,North,-999,0.0,0.0,35,0.00,,,-99.99,FreeWX-Wi 1.02,2013-03-21 07:48:00,
2013-03-21 03:53:00,31.1,6.6,29.79,North,-999,0.0,0.0,35,0.00,,,-99.99,FreeWX-Wi 1.02,2013-03-21 07:53:00,
2013-03-21 03:58:00,31.3,5.5,29.76,North,-999,0.0,0.0,33,0.00,,,-99.99,FreeWX-Wi 1.02,2013-03-21 07:58:00,
2013-03-21 04:03:00,31.5,5.7,29.76,North,-999,0.0,0.0,33,0.00,,,-99.99,FreeWX-Wi 1.02,2013-03-21 08:03:00,
2013-03-21 04:08:00,31.6,7.2,29.76,North,-999,0.0,0.0,35,0.00,,,-99.99,FreeWX-Wi 1.02,2013-03-21 08:08:00,
2013-03-21 04:13:00,31.8,7.3,29.79,North,-999,0.0,0.0,35,0.00,,,-99.99,FreeWX-Wi 1.02,2013-03-21 08:13:00,
2013-03-21 04:18:00,32.0,9.3,29.79,North,-999,0.0,0.0,38,0.00,,,-99.99,FreeWX-Wi 1.02,2013-03-21 08:18:00,
2013-03-21 04:23:00,32.0,9.3,29.79,North,-999,0.0,0.0,38,0.00,,,-99.99,FreeWX-Wi 1.02,2013-03-21 08:23:00,
2013-03-21 04:28:00,32.0,6.3,29.76,North,-999,0.0,0.0,33,0.00,,,-99.99,FreeWX-Wi 1.02,2013-03-21 08:28:00,
2013-03-21 04:33:00,32.2,7.7,29.76,North,-999,0.0,0.0,35,0.00,,,-99.99,FreeWX-Wi 1.02,2013-03-21 08:33:00,
2013-03-21 04:38:00,32.2,7.7,29.76,North,-999,0.0,0.0,35,0.00,,,-99.99,FreeWX-Wi 1.02,2013-03-21 08:38:00,
2013-03-21 04:43:00,32.0,9.3,29.76,North,-999,0.0,0.0,38,0.00,,,-99.99,FreeWX-Wi 1.02,2013-03-21 08:43:00,
2013-03-21 04:48:00,32.0,9.3,29.76,North,-999,0.0,0.0,38,0.00,,,-99.99,FreeWX-Wi 1.02,2013-03-21 08:48:00,
2013-03-21 04:53:00,31.8,9.1,29.76,North,-999,0.0,0.0,38,0.00,,,-99.99,FreeWX-Wi 1.02,2013-03-21 08:53:00,
2013-03-21 04:58:00,31.6,9.0,29.76,North,-999,0.0,0.0,38,0.00,,,-99.99,FreeWX-Wi 1.02,2013-03-21 08:58:00,
2013-03-21 05:03:00,31.6,10.0,29.76,North,-999,0.0,0.0,40,0.00,,,-99.99,FreeWX-Wi 1.02,2013-03-21 09:03:00,
2013-03-21 05:08:00,31.6,9.0,29.76,North,-999,0.0,0.0,38,0.00,,,-99.99,FreeWX-Wi 1.02,2013-03-21 09:08:00,
2013-03-21 05:13:00,31.6,9.0,29.76,North,-999,0.0,0.0,38,0.00,,,-99.99,FreeWX-Wi 1.02,2013-03-21 09:13:00,
2013-03-21 05:18:00,31.5,10.0,29.76,North,-999,0.0,0.0,40,0.00,,,-99.99,FreeWX-Wi 1.02,2013-03-21 09:18:00,
2013-03-21 05:23:00,31.3,9.9,29.76,North,-999,0.0,0.0,40,0.00,,,-99.99,FreeWX-Wi 1.02,2013-03-21 09:23:00,
2013-03-21 05:28:00,31.5,10.0,29.76,North,-999,0.0,0.0,40,0.00,,,-99.99,FreeWX-Wi 1.02,2013-03-21 09:28:00,
2013-03-21 05:33:00,31.5,12.6,29.76,North,-999,0.0,0.0,45,0.00,,,-99.99,FreeWX-Wi 1.02,2013-03-21 09:33:00,
2013-03-21 05:38:00,31.5,12.6,29.76,North,-999,0.0,0.0,45,0.00,,,-99.99,FreeWX-Wi 1.02,2013-03-21 09:38:00,
2013-03-21 05:43:00,31.5,12.6,29.76,North,-999,0.0,0.0,45,0.00,,,-99.99,FreeWX-Wi 1.02,2013-03-21 09:43:00,
2013-03-21 05:48:00,31.5,12.6,29.76,North,-999,0.0,0.0,45,0.00,,,-99.99,FreeWX-Wi 1.02,2013-03-21 09:48:00,
2013-03-21 05:53:00,31.5,11.7,29.76,North,-999,0.0,0.0,43,0.00,,,-99.99,FreeWX-Wi 1.02,2013-03-21 09:53:00,
2013-03-21 05:58:00,31.5,12.6,29.76,North,-999,0.0,0.0,45,0.00,,,-99.99,FreeWX-Wi 1.02,2013-03-21 09:58:00,
2013-03-21 06:03:00,31.6,13.8,29.76,North,-999,0.0,0.0,47,0.00,,,-99.99,FreeWX-Wi 1.02,2013-03-21 10:03:00,
2013-03-21 06:08:00,31.5,13.6,29.76,North,-999,0.0,0.0,47,0.00,,,-99.99,FreeWX-Wi 1.02,2013-03-21 10:08:00,
2013-03-21 06:13:00,31.3,13.5,29.76,North,-999,0.0,0.0,47,0.00,,,-99.99,FreeWX-Wi 1.02,2013-03-21 10:13:00,
2013-03-21 06:18:00,31.3,13.5,29.76,North,-999,0.0,0.0,47,0.00,,,-99.99,FreeWX-Wi 1.02,2013-03-21 10:18:00,
2013-03-21 06:23:00,31.3,13.8,29.76,North,-999,0.0,0.0,48,0.00,,,-99.99,FreeWX-Wi 1.02,2013-03-21 10:23:00,
2013-03-21 06:28:00,31.3,14.4,29.76,North,-999,0.0,0.0,49,0.00,,,-99.99,FreeWX-Wi 1.02,2013-03-21 10:28:00,
2013-03-21 06:33:00,31.3,14.4,29.76,North,-999,0.0,0.0,49,0.00,,,-99.99,FreeWX-Wi 1.02,2013-03-21 10:33:00,
2013-03-21 06:38:00,31.3,14.9,29.76,North,-999,0.0,0.0,50,0.00,,,-99.99,FreeWX-Wi 1.02,2013-03-21 10:38:00,
2013-03-21 06:43:00,31.5,13.1,29.76,North,-999,0.0,0.0,46,0.00,,,-99.99,FreeWX-Wi 1.02,2013-03-21 10:43:00,
2013-03-21 07:18:00,31.3,9.9,29.76,North,-999,0.0,3.1,40,0.00,,,-99.99,FreeWX-Wi 1.02,2013-03-21 11:18:00,
2013-03-21 07:23:00,31.3,3.6,29.76,North,3,1.0,4.9,30,0.00,,,-99.99,FreeWX-Wi 1.02,2013-03-21 11:23:00,
2013-03-21 07:28:00,31.3,3.6,29.76,NNE,16,2.0,4.0,30,0.00,,,-99.99,FreeWX-Wi 1.02,2013-03-21 11:28:00,
2013-03-21 07:33:00,31.1,3.4,29.76,NNE,21,2.0,5.4,30,0.00,,,-99.99,FreeWX-Wi 1.02,2013-03-21 11:33:00,
2013-03-21 07:38:00,31.1,3.4,29.76,NNE,24,2.0,3.6,30,0.00,,,-99.99,FreeWX-Wi 1.02,2013-03-21 11:38:00,
2013-03-21 07:43:00,31.1,3.4,29.76,NNE,28,2.0,3.1,30,0.00,,,-99.99,FreeWX-Wi 1.02,2013-03-21 11:43:00,
2013-03-21 07:48:00,31.1,3.4,29.76,NE,36,2.0,4.0,30,0.00,,,-99.99,FreeWX-Wi 1.02,2013-03-21 11:48:00,
2013-03-21 07:53:00,31.3,3.6,29.76,NE,35,2.0,4.0,30,0.00,,,-99.99,FreeWX-Wi 1.02,2013-03-21 11:53:00,
2013-03-21 07:58:00,32.2,4.3,29.79,NE,35,1.0,3.6,30,0.00,,,-99.99,FreeWX-Wi 1.02,2013-03-21 11:58:00,
2013-03-21 08:03:00,32.5,4.6,29.79,NE,35,1.0,4.9,30,0.00,,,-99.99,FreeWX-Wi 1.02,2013-03-21 12:03:00,
2013-03-21 08:08:00,32.0,4.1,29.79,NE,35,1.0,4.9,30,0.00,,,-99.99,FreeWX-Wi 1.02,2013-03-21 12:08:00,
2013-03-21 08:13:00,32.2,4.3,29.76,NE,34,2.0,4.0,30,0.00,,,-99.99,FreeWX-Wi 1.02,2013-03-21 12:13:00,
2013-03-21 08:18:00,32.2,6.3,29.76,NE,34,2.0,4.0,33,0.00,,,-99.99,FreeWX-Wi 1.02,2013-03-21 12:18:00,
2013-03-21 08:24:00,32.2,4.3,29.76,NNE,31,2.0,4.0,30,0.00,,,-99.99,FreeWX-Wi 1.02,2013-03-21 12:24:00,
2013-03-21 08:29:00,31.8,3.9,29.76,NNE,29,2.0,5.4,30,0.00,,,-99.99,FreeWX-Wi 1.02,2013-03-21 12:29:00,
2013-03-21 08:34:00,31.5,3.6,29.76,NNE,26,2.0,3.1,30,0.00,,,-99.99,FreeWX-Wi 1.02,2013-03-21 12:34:00,
2013-03-21 08:39:00,31.8,3.9,29.76,NNE,23,2.0,3.6,30,0.00,,,-99.99,FreeWX-Wi 1.02,2013-03-21 12:39:00,
2013-03-21 08:44:00,32.2,4.3,29.76,NNE,21,2.0,4.0,30,0.00,,,-99.99,FreeWX-Wi 1.02,2013-03-21 12:44:00,
2013-03-21 08:54:00,32.2,2.8,29.76,NNE,18,1.0,5.4,28,0.00,,,-99.99,FreeWX-Wi 1.02,2013-03-21 12:54:00,
2013-03-21 08:59:00,32.4,3.0,29.76,NNE,18,1.0,4.0,28,0.00,,,-99.99,FreeWX-Wi 1.02,2013-03-21 12:59:00,
2013-03-21 09:04:00,32.7,4.8,29.76,NNE,19,2.0,4.0,30,0.00,,,-99.99,FreeWX-Wi 1.02,2013-03-21 13:04:00,
2013-03-21 09:09:00,32.5,3.0,29.76,NNE,19,2.0,3.6,28,0.00,,,-99.99,FreeWX-Wi 1.02,2013-03-21 13:09:00,
2013-03-21 09:14:00,32.7,4.8,29.76,NNE,19,2.0,3.6,30,0.00,,,-99.99,FreeWX-Wi 1.02,2013-03-21 13:14:00,
2013-03-21 09:21:00,33.1,5.0,29.76,NNE,18,2.0,3.1,30,0.00,,,-99.99,FreeWX-Wi 1.02,2013-03-21 13:21:00,
2013-03-21 09:26:00,32.5,3.0,29.76,NNE,23,2.0,4.9,28,0.00,,,-99.99,FreeWX-Wi 1.02,2013-03-21 13:26:00,
2013-03-21 09:31:00,32.2,4.3,29.76,NNE,27,2.0,4.0,30,0.00,,,-99.99,FreeWX-Wi 1.02,2013-03-21 13:31:00,
2013-03-21 09:37:00,32.7,4.8,29.76,NNE,31,2.0,3.6,30,0.00,,,-99.99,FreeWX-Wi 1.02,2013-03-21 13:37:00,
2013-03-21 09:42:00,32.5,4.6,29.76,NE,35,2.0,5.8,30,0.00,,,-99.99,FreeWX-Wi 1.02,2013-03-21 13:42:00,
2013-03-21 09:47:00,33.1,5.0,29.76,NE,39,3.0,4.9,30,0.00,,,-99.99,FreeWX-Wi 1.02,2013-03-21 13:47:00,
2013-03-21 09:52:00,33.8,3.4,29.76,NE,40,3.0,5.8,27,0.00,,,-99.99,FreeWX-Wi 1.02,2013-03-21 13:52:00,
2013-03-21 09:57:00,33.1,3.6,29.76,NNE,31,2.0,4.0,28,0.00,,,-99.99,FreeWX-Wi 1.02,2013-03-21 13:57:00,
2013-03-21 10:02:00,33.3,3.7,29.76,NNE,19,2.0,4.9,28,0.00,,,-99.99,FreeWX-Wi 1.02,2013-03-21 14:02:00,
2013-03-21 10:07:00,33.1,3.6,29.76,North,5,2.0,4.9,28,0.00,,,-99.99,FreeWX-Wi 1.02,2013-03-21 14:07:00,
2013-03-21 10:12:00,32.9,3.4,29.76,North,357,2.0,4.0,28,0.00,,,-99.99,FreeWX-Wi 1.02,2013-03-21 14:12:00,
2013-03-21 10:17:00,32.5,3.0,29.76,NNW,348,2.0,5.4,28,0.00,,,-99.99,FreeWX-Wi 1.02,2013-03-21 14:17:00,
2013-03-21 10:22:00,32.0,2.7,29.76,NNW,346,2.0,5.4,28,0.00,,,-99.99,FreeWX-Wi 1.02,2013-03-21 14:22:00,
2013-03-21 10:27:00,32.5,4.6,29.76,North,349,2.0,3.1,30,0.00,,,-99.99,FreeWX-Wi 1.02,2013-03-21 14:27:00,
2013-03-21 10:32:00,32.7,3.2,29.76,North,355,2.0,3.6,28,0.00,,,-99.99,FreeWX-Wi 1.02,2013-03-21 14:32:00,
2013-03-21 10:37:00,32.7,4.8,29.76,North,358,2.0,3.6,30,0.00,,,-99.99,FreeWX-Wi 1.02,2013-03-21 14:37:00,
2013-03-21 10:42:00,32.0,4.1,29.76,North,0,2.0,4.0,30,0.00,,,-99.99,FreeWX-Wi 1.02,2013-03-21 14:42:00,
2013-03-21 10:47:00,32.2,6.3,29.76,North,0,2.0,4.9,33,0.00,,,-99.99,FreeWX-Wi 1.02,2013-03-21 14:47:00,
2013-03-21 10:52:00,32.5,4.6,29.76,North,359,2.0,5.4,30,0.00,,,-99.99,FreeWX-Wi 1.02,2013-03-21 14:52:00,
2013-03-21 10:57:00,32.2,4.3,29.76,North,359,2.0,4.0,30,0.00,,,-99.99,FreeWX-Wi 1.02,2013-03-21 14:57:00,
2013-03-21 11:03:00,32.5,4.6,29.76,North,359,2.0,4.9,30,0.00,,,-99.99,FreeWX-Wi 1.02,2013-03-21 15:03:00,
2013-03-21 11:08:00,32.4,3.0,29.76,North,359,2.0,4.9,28,0.00,,,-99.99,FreeWX-Wi 1.02,2013-03-21 15:08:00,
2013-03-21 11:13:00,31.8,3.9,29.74,North,359,2.0,4.9,30,0.00,,,-99.99,FreeWX-Wi 1.02,2013-03-21 15:13:00,
2013-03-21 11:18:00,32.0,4.1,29.74,North,359,2.0,4.0,30,0.00,,,-99.99,FreeWX-Wi 1.02,2013-03-21 15:18:00,
2013-03-21 11:23:00,32.4,4.5,29.74,North,359,2.0,4.0,30,0.00,,,-99.99,FreeWX-Wi 1.02,2013-03-21 15:23:00,
2013-03-21 11:28:00,32.5,4.6,29.74,North,358,2.0,2.7,30,0.00,,,-99.99,FreeWX-Wi 1.02,2013-03-21 15:28:00,
2013-03-21 11:33:00,33.4,5.4,29.74,North,358,2.0,4.0,30,0.00,,,-99.99,FreeWX-Wi 1.02,2013-03-21 15:33:00,
2013-03-21 11:38:00,34.3,3.9,29.74,North,358,2.0,4.9,27,0.00,,,-99.99,FreeWX-Wi 1.02,2013-03-21 15:38:00,
2013-03-21 11:43:00,34.3,3.9,29.74,North,1,2.0,5.4,27,0.00,,,-99.99,FreeWX-Wi 1.02,2013-03-21 15:43:00,
2013-03-21 11:48:00,34.3,3.0,29.74,North,9,2.0,5.4,26,0.00,,,-99.99,FreeWX-Wi 1.02,2013-03-21 15:48:00,
2013-03-21 11:53:00,35.1,3.7,29.74,NNE,15,2.0,5.4,26,0.00,,,-99.99,FreeWX-Wi 1.02,2013-03-21 15:53:00,
2013-03-21 11:58:00,35.6,4.1,29.74,NNE,22,3.0,5.8,26,0.00,,,-99.99,FreeWX-Wi 1.02,2013-03-21 15:58:00,
2013-03-21 12:03:00,37.6,5.0,29.74,NNE,25,3.0,3.6,25,0.00,,,-99.99,FreeWX-Wi 1.02,2013-03-21 16:03:00,
2013-03-21 12:08:00,38.7,5.9,29.74,NNE,30,3.0,4.9,25,0.00,,,-99.99,FreeWX-Wi 1.02,2013-03-21 16:08:00,
2013-03-21 12:13:00,39.9,7.0,29.71,NNE,27,3.0,5.4,25,0.00,,,-99.99,FreeWX-Wi 1.02,2013-03-21 16:13:00,
2013-03-21 12:18:00,38.7,5.9,29.71,NNE,22,3.0,5.8,25,0.00,,,-99.99,FreeWX-Wi 1.02,2013-03-21 16:18:00,
2013-03-21 12:23:00,36.7,5.0,29.71,NNE,22,3.0,4.9,26,0.00,,,-99.99,FreeWX-Wi 1.02,2013-03-21 16:23:00,
2013-03-21 12:28:00,36.3,4.8,29.71,NNE,21,3.0,5.4,26,0.00,,,-99.99,FreeWX-Wi 1.02,2013-03-21 16:28:00,
2013-03-21 12:33:00,36.0,4.5,29.71,NNE,17,3.0,4.0,26,0.00,,,-99.99,FreeWX-Wi 1.02,2013-03-21 16:33:00,
2013-03-21 12:38:00,36.9,5.2,29.71,NNE,15,3.0,4.9,26,0.00,,,-99.99,FreeWX-Wi 1.02,2013-03-21 16:38:00,
2013-03-21 12:43:00,37.4,4.8,29.71,North,11,2.0,5.8,25,0.00,,,-99.99,FreeWX-Wi 1.02,2013-03-21 16:43:00,
2013-03-21 12:48:00,38.1,5.4,29.71,NNE,12,3.0,5.8,25,0.00,,,-99.99,FreeWX-Wi 1.02,2013-03-21 16:48:00,
2013-03-21 12:53:00,39.9,7.0,29.71,North,359,3.0,5.8,25,0.00,,,-99.99,FreeWX-Wi 1.02,2013-03-21 16:53:00,
2013-03-21 12:58:00,40.1,7.2,29.68,North,350,3.0,5.4,25,0.00,,,-99.99,FreeWX-Wi 1.02,2013-03-21 16:58:00,
2013-03-21 13:03:00,41.4,8.2,29.68,North,352,3.0,4.9,25,0.00,,,-99.99,FreeWX-Wi 1.02,2013-03-21 17:03:00,
2013-03-21 13:08:00,38.8,6.1,29.68,North,351,3.0,8.3,25,0.00,,,-99.99,FreeWX-Wi 1.02,2013-03-21 17:08:00,
2013-03-21 13:13:00,38.7,5.9,29.68,North,352,3.0,5.8,25,0.00,,,-99.99,FreeWX-Wi 1.02,2013-03-21 17:13:00,
2013-03-21 13:18:00,38.7,5.9,29.68,North,351,3.0,7.6,25,0.00,,,-99.99,FreeWX-Wi 1.02,2013-03-21 17:18:00,
2013-03-21 13:23:00,37.0,5.4,29.68,North,353,3.0,6.3,26,0.00,,,-99.99,FreeWX-Wi 1.02,2013-03-21 17:23:00,
2013-03-21 13:28:00,37.4,4.8,29.68,North,356,3.0,4.9,25,0.00,,,-99.99,FreeWX-Wi 1.02,2013-03-21 17:28:00,
2013-03-21 13:33:00,37.4,4.8,29.68,North,351,3.0,4.5,25,0.00,,,-99.99,FreeWX-Wi 1.02,2013-03-21 17:33:00,
2013-03-21 13:38:00,36.7,5.0,29.68,NNW,346,3.0,4.9,26,0.00,,,-99.99,FreeWX-Wi 1.02,2013-03-21 17:38:00,
2013-03-21 13:43:00,36.3,4.8,29.68,NNW,343,3.0,4.5,26,0.00,,,-99.99,FreeWX-Wi 1.02,2013-03-21 17:43:00,
2013-03-21 13:48:00,35.6,4.1,29.68,NNW,343,2.0,3.1,26,0.00,,,-99.99,FreeWX-Wi 1.02,2013-03-21 17:48:00,
2013-03-21 13:53:00,35.2,3.7,29.68,North,350,2.0,4.0,26,0.00,,,-99.99,FreeWX-Wi 1.02,2013-03-21 17:53:00,
2013-03-21 13:58:00,36.0,4.5,29.68,NNW,347,2.0,4.9,26,0.00,,,-99.99,FreeWX-Wi 1.02,2013-03-21 17:58:00,
2013-03-21 14:03:00,36.0,4.5,29.68,NNW,344,2.0,4.0,26,0.00,,,-99.99,FreeWX-Wi 1.02,2013-03-21 18:03:00,
2013-03-21 14:08:00,35.1,3.7,29.68,North,349,2.0,5.4,26,0.00,,,-99.99,FreeWX-Wi 1.02,2013-03-21 18:08:00,
2013-03-21 14:13:00,34.9,3.6,29.65,North,359,2.0,5.4,26,0.00,,,-99.99,FreeWX-Wi 1.02,2013-03-21 18:13:00,
2013-03-21 14:18:00,34.3,3.9,29.65,North,359,2.0,5.4,27,0.00,,,-99.99,FreeWX-Wi 1.02,2013-03-21 18:18:00,
2013-03-21 14:23:00,34.9,3.6,29.65,North,354,2.0,4.0,26,0.00,,,-99.99,FreeWX-Wi 1.02,2013-03-21 18:23:00,
2013-03-21 14:28:00,34.2,3.7,29.65,North,357,2.0,5.4,27,0.00,,,-99.99,FreeWX-Wi 1.02,2013-03-21 18:28:00,
2013-03-21 14:33:00,34.0,5.9,29.65,North,359,2.0,5.4,30,0.00,,,-99.99,FreeWX-Wi 1.02,2013-03-21 18:33:00,
2013-03-21 14:38:00,34.0,7.3,29.65,North,355,2.0,3.1,32,0.00,,,-99.99,FreeWX-Wi 1.02,2013-03-21 18:38:00,
2013-03-21 14:43:00,33.4,14.9,29.65,NNW,348,2.0,4.0,46,0.00,,,-99.99,FreeWX-Wi 1.02,2013-03-21 18:43:00,
2013-03-21 14:48:00,32.7,14.7,29.65,North,351,2.0,4.9,47,0.00,,,-99.99,FreeWX-Wi 1.02,2013-03-21 18:48:00,
2013-03-21 14:53:00,32.5,14.5,29.65,North,357,2.0,4.0,47,0.00,,,-99.99,FreeWX-Wi 1.02,2013-03-21 18:53:00,
2013-03-21 14:58:00,32.5,15.4,29.65,North,358,2.0,4.0,49,0.00,,,-99.99,FreeWX-Wi 1.02,2013-03-21 18:58:00,
2013-03-21 15:03:00,32.7,16.2,29.65,North,1,2.0,4.0,50,0.00,,,-99.99,FreeWX-Wi 1.02,2013-03-21 19:03:00,
2013-03-21 15:09:00,32.9,14.9,29.65,North,5,2.0,3.6,47,0.00,,,-99.99,FreeWX-Wi 1.02,2013-03-21 19:09:00,
2013-03-21 15:14:00,32.9,14.4,29.65,North,5,2.0,4.0,46,0.00,,,-99.99,FreeWX-Wi 1.02,2013-03-21 19:14:00,
2013-03-21 15:19:00,32.5,16.5,29.65,North,5,1.0,2.7,51,0.00,,,-99.99,FreeWX-Wi 1.02,2013-03-21 19:19:00,
2013-03-21 15:24:00,32.4,18.5,29.65,North,4,1.0,2.7,56,0.00,,,-99.99,FreeWX-Wi 1.02,2013-03-21 19:24:00,
2013-03-21 15:29:00,32.5,18.1,29.65,North,4,1.0,3.1,55,0.00,,,-99.99,FreeWX-Wi 1.02,2013-03-21 19:29:00,
2013-03-21 15:34:00,32.2,17.8,29.65,North,4,1.0,3.6,55,0.00,,,-99.99,FreeWX-Wi 1.02,2013-03-21 19:34:00,
2013-03-21 15:39:00,32.5,19.0,29.65,North,-999,0.0,2.2,57,0.00,,,-99.99,FreeWX-Wi 1.02,2013-03-21 19:39:00,
2013-03-21 15:44:00,32.5,18.7,29.65,North,-999,0.0,0.0,56,0.00,,,-99.99,FreeWX-Wi 1.02,2013-03-21 19:44:00,
2013-03-21 15:49:00,33.1,19.0,29.65,North,-999,0.0,3.6,56,0.00,,,-99.99,FreeWX-Wi 1.02,2013-03-21 19:49:00,
2013-03-21 15:54:00,33.1,17.8,29.65,North,-999,0.0,0.0,53,0.00,,,-99.99,FreeWX-Wi 1.02,2013-03-21 19:54:00,
2013-03-21 15:59:00,33.3,17.1,29.65,North,-999,0.0,4.0,51,0.00,,,-99.99,FreeWX-Wi 1.02,2013-03-21 19:59:00,
2013-03-21 16:04:00,33.1,16.0,29.65,North,5,1.0,5.8,49,0.00,,,-99.99,FreeWX-Wi 1.02,2013-03-21 20:04:00,
2013-03-21 16:09:00,33.1,16.0,29.65,North,8,1.0,4.9,49,0.00,,,-99.99,FreeWX-Wi 1.02,2013-03-21 20:09:00,
2013-03-21 16:14:00,33.1,15.6,29.65,NNE,12,2.0,5.4,48,0.00,,,-99.99,FreeWX-Wi 1.02,2013-03-21 20:14:00,
2013-03-21 16:19:00,32.7,14.7,29.65,NNE,16,2.0,4.0,47,0.00,,,-99.99,FreeWX-Wi 1.02,2013-03-21 20:19:00,
2013-03-21 16:24:00,32.9,14.4,29.65,NNE,21,2.0,5.4,46,0.00,,,-99.99,FreeWX-Wi 1.02,2013-03-21 20:24:00,
2013-03-21 16:29:00,32.9,14.9,29.65,NNE,21,2.0,4.0,47,0.00,,,-99.99,FreeWX-Wi 1.02,2013-03-21 20:29:00,
2013-03-21 16:34:00,32.9,14.4,29.65,NNE,21,2.0,4.0,46,0.00,,,-99.99,FreeWX-Wi 1.02,2013-03-21 20:34:00,
2013-03-21 16:39:00,33.1,14.5,29.65,NNE,21,2.0,4.5,46,0.00,,,-99.99,FreeWX-Wi 1.02,2013-03-21 20:39:00,
2013-03-21 16:44:00,32.9,15.4,29.65,NNE,21,2.0,4.0,48,0.00,,,-99.99,FreeWX-Wi 1.02,2013-03-21 20:44:00,
2013-03-21 16:49:00,32.9,14.9,29.65,NNE,21,2.0,3.6,47,0.00,,,-99.99,FreeWX-Wi 1.02,2013-03-21 20:49:00,
2013-03-21 16:54:00,32.7,15.6,29.65,NNE,21,2.0,3.6,49,0.00,,,-99.99,FreeWX-Wi 1.02,2013-03-21 20:54:00,
2013-03-21 16:59:00,32.2,16.2,29.65,NNE,21,2.0,5.4,51,0.00,,,-99.99,FreeWX-Wi 1.02,2013-03-21 20:59:00,
2013-03-21 17:04:00,32.0,17.6,29.65,NNE,20,2.0,4.0,55,0.00,,,-99.99,FreeWX-Wi 1.02,2013-03-21 21:04:00,
2013-03-21 17:09:00,31.8,17.6,29.65,NNE,20,1.0,3.1,55,0.00,,,-99.99,FreeWX-Wi 1.02,2013-03-21 21:09:00,
2013-03-21 17:14:00,31.8,17.6,29.62,NNE,20,1.0,3.6,55,0.00,,,-99.99,FreeWX-Wi 1.02,2013-03-21 21:14:00,
2013-03-21 17:19:00,32.0,17.6,29.62,NNE,20,1.0,2.2,55,0.00,,,-99.99,FreeWX-Wi 1.02,2013-03-21 21:19:00,
2013-03-21 17:24:00,32.4,18.9,29.62,NNE,20,1.0,4.0,57,0.00,,,-99.99,FreeWX-Wi 1.02,2013-03-21 21:24:00,
2013-03-21 17:29:00,32.4,18.0,29.62,North,-999,0.0,2.7,55,0.00,,,-99.99,FreeWX-Wi 1.02,2013-03-21 21:29:00,
2013-03-21 17:34:00,32.0,17.6,29.62,North,-999,0.0,4.0,55,0.00,,,-99.99,FreeWX-Wi 1.02,2013-03-21 21:34:00,
2013-03-21 17:39:00,32.0,17.6,29.62,NNE,20,1.0,3.6,55,0.00,,,-99.99,FreeWX-Wi 1.02,2013-03-21 21:39:00,
2013-03-21 17:44:00,32.2,17.8,29.65,North,-999,0.0,2.2,55,0.00,,,-99.99,FreeWX-Wi 1.02,2013-03-21 21:44:00,
2013-03-21 17:49:00,32.2,17.8,29.65,North,-999,0.0,3.6,55,0.00,,,-99.99,FreeWX-Wi 1.02,2013-03-21 21:49:00,
2013-03-21 17:54:00,32.2,17.1,29.65,North,-999,0.0,2.7,53,0.00,,,-99.99,FreeWX-Wi 1.02,2013-03-21 21:54:00,
2013-03-21 17:59:00,32.0,16.9,29.65,North,-999,0.0,2.2,53,0.00,,,-99.99,FreeWX-Wi 1.02,2013-03-21 21:59:00,
2013-03-21 18:04:00,31.6,16.5,29.65,North,-999,0.0,0.0,53,0.00,,,-99.99,FreeWX-Wi 1.02,2013-03-21 22:04:00,
2013-03-21 18:09:00,31.6,16.5,29.65,North,-999,0.0,0.0,53,0.00,,,-99.99,FreeWX-Wi 1.02,2013-03-21 22:09:00,
2013-03-21 18:14:00,31.5,16.7,29.65,North,-999,0.0,0.0,54,0.00,,,-99.99,FreeWX-Wi 1.02,2013-03-21 22:14:00,
2013-03-21 18:19:00,31.3,16.5,29.65,North,-999,0.0,0.0,54,0.00,,,-99.99,FreeWX-Wi 1.02,2013-03-21 22:19:00,
2013-03-21 18:24:00,31.3,17.1,29.65,North,-999,0.0,0.0,55,0.00,,,-99.99,FreeWX-Wi 1.02,2013-03-21 22:24:00,
2013-03-21 18:29:00,31.1,16.9,29.65,North,-999,0.0,0.0,55,0.00,,,-99.99,FreeWX-Wi 1.02,2013-03-21 22:29:00,
2013-03-21 18:34:00,31.1,17.2,29.65,North,-999,0.0,0.0,56,0.00,,,-99.99,FreeWX-Wi 1.02,2013-03-21 22:34:00,
2013-03-21 18:39:00,31.1,17.2,29.65,North,-999,0.0,0.0,56,0.00,,,-99.99,FreeWX-Wi 1.02,2013-03-21 22:39:00,
2013-03-21 18:44:00,31.1,17.6,29.65,North,-999,0.0,0.0,57,0.00,,,-99.99,FreeWX-Wi 1.02,2013-03-21 22:44:00,
2013-03-21 18:49:00,30.7,17.8,29.65,North,-999,0.0,0.0,58,0.00,,,-99.99,FreeWX-Wi 1.02,2013-03-21 22:49:00,
2013-03-21 18:54:00,30.6,19.4,29.65,North,-999,0.0,0.0,63,0.00,,,-99.99,FreeWX-Wi 1.02,2013-03-21 22:54:00,
2013-03-21 18:59:00,30.2,20.3,29.65,North,-999,0.0,0.0,66,0.00,,,-99.99,FreeWX-Wi 1.02,2013-03-21 22:59:00,
2013-03-21 19:04:00,30.0,20.5,29.65,North,-999,0.0,2.7,67,0.00,,,-99.99,FreeWX-Wi 1.02,2013-03-21 23:04:00,
2013-03-21 19:09:00,29.8,21.0,29.65,North,-999,0.0,2.7,69,0.00,,,-99.99,FreeWX-Wi 1.02,2013-03-21 23:09:00,
2013-03-21 19:14:00,29.8,21.0,29.65,North,-999,0.0,2.2,69,0.00,,,-99.99,FreeWX-Wi 1.02,2013-03-21 23:14:00,
2013-03-21 19:19:00,29.8,21.0,29.65,North,-999,0.0,0.0,69,0.00,,,-99.99,FreeWX-Wi 1.02,2013-03-21 23:19:00,
2013-03-21 19:24:00,29.8,21.0,29.65,North,-999,0.0,0.0,69,0.00,,,-99.99,FreeWX-Wi 1.02,2013-03-21 23:24:00,
2013-03-21 19:29:00,30.0,21.0,29.65,North,-999,0.0,0.0,69,0.00,,,-99.99,FreeWX-Wi 1.02,2013-03-21 23:29:00,
2013-03-21 19:34:00,30.0,20.8,29.65,North,-999,0.0,0.0,68,0.00,,,-99.99,FreeWX-Wi 1.02,2013-03-21 23:34:00,
2013-03-21 19:39:00,29.8,20.7,29.65,North,-999,0.0,0.0,68,0.00,,,-99.99,FreeWX-Wi 1.02,2013-03-21 23:39:00,
2013-03-21 19:44:00,29.8,20.7,29.65,North,-999,0.0,0.0,68,0.00,,,-99.99,FreeWX-Wi 1.02,2013-03-21 23:44:00,
2013-03-21 19:50:00,29.7,20.5,29.65,North,-999,0.0,0.0,68,0.00,,,-99.99,FreeWX-Wi 1.02,2013-03-21 23:50:00,
2013-03-21 19:55:00,29.7,20.1,29.65,North,-999,0.0,0.0,67,0.00,,,-99.99,FreeWX-Wi 1.02,2013-03-21 23:55:00,
2013-03-21 20:00:00,29.5,19.9,29.65,North,-999,0.0,0.0,67,0.00,,,-99.99,FreeWX-Wi 1.02,2013-03-22 00:00:00,
2013-03-21 20:05:00,29.3,19.8,29.65,North,-999,0.0,0.0,67,0.00,,,-99.99,FreeWX-Wi 1.02,2013-03-22 00:05:00,
2013-03-21 20:10:00,29.1,19.6,29.65,North,-999,0.0,0.0,67,0.00,,,-99.99,FreeWX-Wi 1.02,2013-03-22 00:10:00,
2013-03-21 20:15:00,28.9,19.4,29.65,North,-999,0.0,0.0,67,0.00,,,-99.99,FreeWX-Wi 1.02,2013-03-22 00:15:00,
2013-03-21 20:20:00,28.8,19.2,29.65,North,-999,0.0,0.0,67,0.00,,,-99.99,FreeWX-Wi 1.02,2013-03-22 00:20:00,
2013-03-21 20:25:00,28.8,19.2,29.65,North,-999,0.0,0.0,67,0.00,,,-99.99,FreeWX-Wi 1.02,2013-03-22 00:25:00,
2013-03-21 20:30:00,28.8,19.6,29.65,North,-999,0.0,0.0,68,0.00,,,-99.99,FreeWX-Wi 1.02,2013-03-22 00:30:00,
2013-03-21 20:35:00,28.8,19.6,29.65,North,-999,0.0,0.0,68,0.00,,,-99.99,FreeWX-Wi 1.02,2013-03-22 00:35:00,
2013-03-21 20:40:00,28.8,19.6,29.65,North,-999,0.0,0.0,68,0.00,,,-99.99,FreeWX-Wi 1.02,2013-03-22 00:40:00,
2013-03-21 20:45:00,28.6,19.4,29.65,North,-999,0.0,0.0,68,0.00,,,-99.99,FreeWX-Wi 1.02,2013-03-22 00:45:00,
2013-03-21 20:50:00,28.8,19.6,29.65,North,-999,0.0,0.0,68,0.00,,,-99.99,FreeWX-Wi 1.02,2013-03-22 00:50:00,
2013-03-21 20:55:00,28.8,19.6,29.65,North,-999,0.0,0.0,68,0.00,,,-99.99,FreeWX-Wi 1.02,2013-03-22 00:55:00,
2013-03-21 21:00:00,28.8,19.6,29.65,North,-999,0.0,0.0,68,0.00,,,-99.99,FreeWX-Wi 1.02,2013-03-22 01:00:00,
2013-03-21 21:05:00,28.6,19.4,29.65,North,-999,0.0,0.0,68,0.00,,,-99.99,FreeWX-Wi 1.02,2013-03-22 01:05:00,
2013-03-21 21:10:00,28.6,19.4,29.65,North,-999,0.0,0.0,68,0.00,,,-99.99,FreeWX-Wi 1.02,2013-03-22 01:10:00,
2013-03-21 21:15:00,28.4,19.2,29.65,North,-999,0.0,0.0,68,0.00,,,-99.99,FreeWX-Wi 1.02,2013-03-22 01:15:00,
2013-03-21 21:20:00,28.2,19.0,29.65,North,-999,0.0,0.0,68,0.00,,,-99.99,FreeWX-Wi 1.02,2013-03-22 01:20:00,
2013-03-21 21:25:00,27.9,18.7,29.68,North,-999,0.0,0.0,68,0.00,,,-99.99,FreeWX-Wi 1.02,2013-03-22 01:25:00,
2013-03-21 21:30:00,27.5,18.3,29.68,North,-999,0.0,0.0,68,0.00,,,-99.99,FreeWX-Wi 1.02,2013-03-22 01:30:00,
2013-03-21 21:35:00,27.1,18.3,29.68,North,-999,0.0,0.0,69,0.00,,,-99.99,FreeWX-Wi 1.02,2013-03-22 01:35:00,
2013-03-21 21:40:00,27.0,18.1,29.68,North,-999,0.0,0.0,69,0.00,,,-99.99,FreeWX-Wi 1.02,2013-03-22 01:40:00,
2013-03-21 21:45:00,27.1,19.0,29.68,North,-999,0.0,0.0,71,0.00,,,-99.99,FreeWX-Wi 1.02,2013-03-22 01:45:00,
2013-03-21 21:50:00,27.0,19.2,29.68,North,-999,0.0,0.0,72,0.00,,,-99.99,FreeWX-Wi 1.02,2013-03-22 01:50:00,
2013-03-21 21:55:00,27.0,19.4,29.68,North,-999,0.0,0.0,73,0.00,,,-99.99,FreeWX-Wi 1.02,2013-03-22 01:55:00,
2013-03-21 22:00:00,27.0,19.4,29.68,North,-999,0.0,0.0,73,0.00,,,-99.99,FreeWX-Wi 1.02,2013-03-22 02:00:00,
2013-03-21 22:05:00,27.0,19.8,29.68,North,-999,0.0,0.0,74,0.00,,,-99.99,FreeWX-Wi 1.02,2013-03-22 02:05:00,
2013-03-21 22:10:00,26.8,19.6,29.68,North,-999,0.0,0.0,74,0.00,,,-99.99,FreeWX-Wi 1.02,2013-03-22 02:10:00,
2013-03-21 22:15:00,26.8,19.6,29.68,North,-999,0.0,0.0,74,0.00,,,-99.99,FreeWX-Wi 1.02,2013-03-22 02:15:00,
2013-03-21 22:20:00,27.0,19.8,29.68,North,-999,0.0,0.0,74,0.00,,,-99.99,FreeWX-Wi 1.02,2013-03-22 02:20:00,
2013-03-21 22:25:00,27.0,19.8,29.68,North,-999,0.0,0.0,74,0.00,,,-99.99,FreeWX-Wi 1.02,2013-03-22 02:25:00,
2013-03-21 22:30:00,27.0,19.8,29.68,North,-999,0.0,0.0,74,0.00,,,-99.99,FreeWX-Wi 1.02,2013-03-22 02:30:00,
2013-03-21 22:35:00,27.0,19.8,29.68,North,-999,0.0,0.0,74,0.00,,,-99.99,FreeWX-Wi 1.02,2013-03-22 02:35:00,
2013-03-21 22:40:00,27.0,19.8,29.68,North,-999,0.0,0.0,74,0.00,,,-99.99,FreeWX-Wi 1.02,2013-03-22 02:40:00,
2013-03-21 22:45:00,26.8,19.6,29.68,North,-999,0.0,0.0,74,0.00,,,-99.99,FreeWX-Wi 1.02,2013-03-22 02:45:00,
2013-03-21 22:50:00,26.6,19.8,29.68,North,-999,0.0,0.0,75,0.00,,,-99.99,FreeWX-Wi 1.02,2013-03-22 02:50:00,
2013-03-21 22:55:00,26.6,20.1,29.68,North,-999,0.0,0.0,76,0.00,,,-99.99,FreeWX-Wi 1.02,2013-03-22 02:55:00,
2013-03-21 23:00:00,26.6,20.1,29.68,North,-999,0.0,0.0,76,0.00,,,-99.99,FreeWX-Wi 1.02,2013-03-22 03:00:00,
2013-03-21 23:05:00,26.2,19.8,29.68,North,-999,0.0,0.0,76,0.00,,,-99.99,FreeWX-Wi 1.02,2013-03-22 03:05:00,
2013-03-21 23:10:00,26.1,19.6,29.68,North,-999,0.0,0.0,76,0.00,,,-99.99,FreeWX-Wi 1.02,2013-03-22 03:10:00,
2013-03-21 23:15:00,25.9,19.4,29.68,North,-999,0.0,0.0,76,0.00,,,-99.99,FreeWX-Wi 1.02,2013-03-22 03:15:00,
2013-03-21 23:20:00,26.1,19.9,29.68,North,-999,0.0,0.0,77,0.00,,,-99.99,FreeWX-Wi 1.02,2013-03-22 03:20:00,
2013-03-21 23:25:00,25.9,19.8,29.68,North,-999,0.0,0.0,77,0.00,,,-99.99,FreeWX-Wi 1.02,2013-03-22 03:25:00,
2013-03-21 23:30:00,25.7,19.2,29.68,North,-999,0.0,0.0,76,0.00,,,-99.99,FreeWX-Wi 1.02,2013-03-22 03:30:00,
2013-03-21 23:35:00,25.9,18.5,29.68,North,-999,0.0,0.0,73,0.00,,,-99.99,FreeWX-Wi 1.02,2013-03-22 03:35:00,
2013-03-21 23:40:00,25.9,16.9,29.68,North,-999,0.0,0.0,68,0.00,,,-99.99,FreeWX-Wi 1.02,2013-03-22 03:40:00,
2013-03-21 23:45:00,26.1,14.2,29.68,North,-999,0.0,0.0,60,0.00,,,-99.99,FreeWX-Wi 1.02,2013-03-22 03:45:00,
2013-03-21 23:50:00,26.2,11.8,29.68,North,-999,0.0,0.0,54,0.00,,,-99.99,FreeWX-Wi 1.02,2013-03-22 03:50:00,
2013-03-21 23:55:00,26.4,9.0,29.68,North,-999,0.0,3.6,47,0.00,,,-99.99,FreeWX-Wi 1.02,2013-03-22 03:55:00,